Location: Ashton River Estates
(39.1762°N, 77.0261°W)
Time: 00:03:54
(UTC+00:00)

Cosmos 1812 Rocket - Pass Details

Date: 29 October 2020
Orbit: 605 x 632 km, 82.5° (Epoch: 03 December)

Event Time Altitude Azimuth Distance (km) Brightness Sun altitude
Rises 23:47:07 0° 187° (S) 2,890 7.1 -19.3°
Reaches altitude 10° 23:49:21 10° 187° (S) 1,984 6.3 -19.8°
Maximum altitude 23:53:45 87° 276° (W) 625 3.5 -20.6°
Drops below altitude 10° 23:58:09 10° 7° (N) 1,982 6.1 -21.5°
Sets 00:00:22 0° 7° (N) 2,887 6.9 -21.9°
